Weather History for Norwood, MA

Change the Weather History Date:

Sunday, January 1, 2012

  Actual Average Record
Temperature  
Mean Temperature 40 °F -  
Max Temperature 54 °F 36 °F 57 °F (2011)
Min Temperature 26 °F 20 °F 5 °F (2009)
Degree Days  
Heating Degree Days 25    
Moisture  
Dew Point 33 °F    
Average Humidity 82    
Maximum Humidity 93    
Minimum Humidity 47    
Precipitation  
Precipitation 0.01 in - - ()
Sea Level Pressure  
Sea Level Pressure 29.94 in    
Wind  
Wind Speed 2 mph (SSW)    
Max Wind Speed 13 mph    
Max Gust Speed 17 mph    
Visibility 6 miles    
Events Fog , Rain    
Averages and records for this station are not official NWS values.
T = Trace of Precipitation, MM = Missing Value Source: NWS Daily Summary

Daily Weather History Graph

Daily Weather History Graph

Search for Another Location

Airport:

Trip Planner

Search our weather history database for the weather conditions in past years. The results will help you decide how hot, cold, wet, or windy it might be!

Date:

Astronomy

Jan. 01, 2012 Rise Set
Actual Time 7:13 AM EST 4:22 PM EST
Civil Twilight 6:41 AM EST 4:54 PM EST
Nautical Twilight 6:06 AM EST 5:29 PM EST
Astronomical Twilight 5:32 AM EST 6:03 PM EST
Moon 11:14 AM EST (1/1) 12:01 AM EST (1/1)
Length of Visible Light 10h 13m
Length of Day
9h 09m
First Quarter, 54% of the Moon is Illuminated
Jan 1
First Quarter
Jan 9
Full
Jan 16
Last Quarter
Jan 23
New
Jan 30
First Quarter

Hourly Weather History & Observations

Time (EST) Temp. Windchill Dew Point Humidity Pressure Visibility Wind Dir Wind Speed Gust Speed Precip Events Conditions
12:14 AM 30.2 °F - 28.4 °F 93% 29.92 in 1.5 mi Calm Calm - N/A   Clear
12:27 AM 30.2 °F - 28.4 °F 93% 29.91 in 0.8 mi Calm Calm - N/A   Mist
12:53 AM 30.0 °F - 27.0 °F 88% 29.92 in 0.2 mi Calm Calm - N/A Fog Light Freezing Fog
1:39 AM 30.2 °F - 26.6 °F 86% 29.94 in 0.5 mi Calm Calm - N/A Fog Light Freezing Fog
1:49 AM 28.4 °F - 24.8 °F 86% 29.95 in 1.0 mi Calm Calm - N/A   Mist
1:53 AM 28.9 °F - 26.1 °F 89% 29.96 in 1.5 mi Calm Calm - N/A   Scattered Clouds
2:06 AM 28.4 °F - 24.8 °F 86% 29.96 in 3.0 mi Calm Calm - N/A   Partly Cloudy
2:53 AM 28.0 °F - 25.0 °F 88% 29.98 in 5.0 mi Calm Calm - N/A   Clear
3:53 AM 30.0 °F 26.5 °F 28.0 °F 92% 29.99 in 4.0 mi ESE 3.5 mph - N/A   Clear
4:53 AM 28.0 °F 24.2 °F 26.1 °F 92% 30.00 in 4.0 mi SE 3.5 mph - N/A   Clear
5:24 AM 30.2 °F - 24.8 °F 80% 30.01 in 1.8 mi Calm Calm - N/A   Haze
5:40 AM 28.4 °F - 26.6 °F 93% 30.01 in 2.0 mi Calm Calm - N/A   Scattered Clouds
5:53 AM 26.1 °F - 24.1 °F 92% 30.02 in 2.5 mi Calm Calm - N/A   Scattered Clouds
6:02 AM 26.6 °F - 24.8 °F 93% 30.02 in 2.5 mi Calm Calm - N/A   Mostly Cloudy
6:17 AM 26.6 °F - 23.0 °F 86% 30.02 in 3.0 mi Calm Calm - N/A   Overcast
6:22 AM 28.4 °F 24.6 °F 24.8 °F 86% 30.02 in 1.5 mi South 3.5 mph - N/A   Overcast
6:50 AM 28.4 °F - 24.8 °F 86% 30.04 in 0.5 mi Calm Calm - N/A Fog Light Freezing Fog
6:53 AM 27.0 °F - 25.0 °F 92% 30.04 in 0.2 mi Calm Calm - N/A Fog Light Freezing Fog
7:07 AM 26.6 °F - 23.0 °F 86% 30.04 in 1.2 mi Calm Calm - N/A   Scattered Clouds
7:16 AM 26.6 °F - 24.8 °F 93% 30.04 in 0.8 mi Calm Calm - N/A   Mist
7:30 AM 26.6 °F - 24.8 °F 93% 30.05 in 2.0 mi Calm Calm - N/A   Partly Cloudy
7:40 AM 26.6 °F - 24.8 °F 93% 30.05 in 10.0 mi Calm Calm - N/A   Scattered Clouds
7:53 AM 28.0 °F - 26.1 °F 92% 30.05 in 10.0 mi Calm Calm - N/A   Scattered Clouds
8:03 AM 28.4 °F - 26.6 °F 93% 30.05 in 5.0 mi Calm Calm - N/A   Mostly Cloudy
8:10 AM 28.4 °F - 26.6 °F 93% 30.06 in 3.0 mi Calm Calm - N/A   Scattered Clouds
8:35 AM 33.8 °F - 30.2 °F 87% 30.06 in 2.0 mi Calm Calm - N/A   Scattered Clouds
8:53 AM 36.0 °F - 33.1 °F 89% 30.07 in 2.5 mi Calm Calm - N/A   Scattered Clouds
9:00 AM 37.4 °F - 33.8 °F 87% 30.07 in 10.0 mi Calm Calm - N/A   Clear
9:53 AM 44.1 °F 40.8 °F 37.9 °F 79% 30.07 in 10.0 mi WSW 5.8 mph - N/A   Clear
10:53 AM 48.9 °F - 37.9 °F 66% 30.06 in 10.0 mi West 9.2 mph - N/A   Clear
11:53 AM 52.0 °F - 37.0 °F 57% 30.01 in 10.0 mi WSW 4.6 mph - N/A   Clear
12:53 PM 52.0 °F - 36.0 °F 54% 29.97 in 10.0 mi SW 9.2 mph - N/A   Clear
1:53 PM 54.0 °F - 34.0 °F 47% 29.93 in 10.0 mi SSW 9.2 mph - N/A   Clear
2:53 PM 53.1 °F - 35.1 °F 50% 29.92 in 10.0 mi South 12.7 mph - N/A   Clear
3:53 PM 51.1 °F - 35.1 °F 54% 29.91 in 10.0 mi South 10.4 mph - N/A   Clear
4:53 PM 48.0 °F - 37.9 °F 68% 29.87 in 10.0 mi South 9.2 mph - N/A   Clear
5:37 PM 48.2 °F - 39.2 °F 71% 29.86 in 10.0 mi South 9.2 mph - N/A   Mostly Cloudy
5:53 PM 46.9 °F - 39.9 °F 77% 29.85 in 10.0 mi South 8.1 mph - N/A   Mostly Cloudy
6:05 PM 46.4 °F 41.9 °F 41.0 °F 81% 29.85 in 10.0 mi South 9.2 mph - N/A   Scattered Clouds
6:48 PM 48.2 °F - 41.0 °F 76% 29.85 in 10.0 mi SSW 6.9 mph - N/A   Mostly Cloudy
6:53 PM 48.0 °F - 41.0 °F 77% 29.85 in 10.0 mi SSW 9.2 mph - N/A   Mostly Cloudy
7:28 PM 48.2 °F - 39.2 °F 71% 29.82 in 10.0 mi South 9.2 mph - N/A   Scattered Clouds
7:53 PM 48.0 °F - 39.9 °F 74% 29.80 in 10.0 mi South 10.4 mph 17.3 mph N/A   Partly Cloudy
8:46 PM 48.2 °F - 42.8 °F 82% 29.78 in 10.0 mi SSW 6.9 mph - N/A   Mostly Cloudy
8:53 PM 48.9 °F - 42.1 °F 77% 29.78 in 10.0 mi SSW 10.4 mph - N/A   Mostly Cloudy
9:20 PM 48.2 °F - 42.8 °F 82% 29.76 in 10.0 mi South 5.8 mph - N/A   Scattered Clouds
9:48 PM 48.2 °F - 42.8 °F 82% 29.75 in 10.0 mi SW 5.8 mph - 0.00 in Rain Light Rain
9:53 PM 48.9 °F - 43.0 °F 80% 29.75 in 10.0 mi SW 6.9 mph - 0.00 in   Overcast
10:24 PM 48.2 °F - 44.6 °F 87% 29.73 in 10.0 mi South 8.1 mph - N/A   Overcast
10:53 PM 48.9 °F - 45.0 °F 86% 29.70 in 10.0 mi South 4.6 mph - 0.00 in   Overcast
11:53 PM 51.1 °F - 46.0 °F 83% 29.64 in 10.0 mi South 6.9 mph - 0.01 in   Overcast